Regional Weather Roundup
Issued by NWS

Home | Current Version | Previous Version | Text Only | Print | Product List | Glossary Off
Versions: 1 2 3 4 5 6 7 8 9 10 11 12 13 14 15 16 17 18 19 20 21 22 23 24 25 26 27 28 29 30 31 32 33 34 35 36 37 38 39 40 41 42 43 44 45 46 47 48 49 50

917
ASUS44 KLIX 201610
RWRLA
LOUISIANA WEATHER ROUNDUP
NATIONAL WEATHER SERVICE NEW ORLEANS LA
1100 AM CDT SUN APR 20 2014

NOTE: "FAIR" INDICATES FEW OR NO CLOUDS BELOW 12,000 FEET WITH NO
      SIGNIFICANT WEATHER AND/OR OBSTRUCTIONS TO VISIBILITY.
      SKY/WX - SKY CONDITION AND SIGNIFICANT WEATHER.
      TMP - AIR TEMPERATURE.    DP   - DEWPOINT TEMPERATURE.
      RH  - RELATIVE HUMIDITY.  PRES - PRESSURE.
      HX  - HEAT INDEX.         WCI  - WIND CHILL INDEX.

*  THESE STATIONS ARE NOT NWS OR FAA STATIONS AND ARE NOT UNDER
   NWS QUALITY CONTROL.

LAZ040-048-061>063-065-066-069-201700-
SOUTHEAST LOUISIANA

CITY           SKY/WX    TMP DP  RH WIND       PRES   REMARKS
N.O. AUDUBON     N/A     76  58  53 MISG        N/A
N.O. INTL ARPT MOSUNNY   75  59  57 SE6       30.19S
N.O. LAKEFRONT SUNNY     71  60  68 E8        30.20S
N.O. DOWNTOWN* FAIR      73  55  53 CALM      30.19F
SLIDELL        SUNNY     73  57  57 CALM      30.19S
BATON ROUGE    SUNNY     79  51  37 NE7       30.19S
BOOTHVILLE     SUNNY     69  60  73 NE8       30.19S
BELLE CHASSE   MOSUNNY   74  59  59 VRB5      30.18F
BOGALUSA*        N/A     73  56  54 CALM      30.22S
GALLIANO*      SUNNY     74  62  66 E10       30.19S
NEW ROADS*     FAIR      75  54  47 E3        30.20S
GONZALES*      FAIR      76  56  48 E3        30.18S
HAMMOND*       SUNNY     77  55  47 CALM      30.21S
HOUMA*         SUNNY     79  57  47 NE5       30.20R
PORT FOURCHON* SUNNY     72  63  73 E8G15     30.21R

$$

LAZ041-044-053-054-201700-
SOUTHWEST LOUISIANA

CITY           SKY/WX    TMP DP  RH WIND       PRES   REMARKS
LAKE CHARLES   SUNNY     76  54  46 E3        30.19R
LAFAYETTE      SUNNY     74  56  53 VRB3      30.20R
PATTERSON      SUNNY     77  54  44 E6        30.22S
SALT POINT       N/A     78  58  49 VRB6      30.18R
NEW IBERIA     SUNNY     76  56  49 VRB3      30.20S
CHENAULT AIRPK SUNNY     75  55  50 CALM      30.20

$$

LAZ027-028-201700-
CENTRAL LOUISIANA

CITY           SKY/WX    TMP DP  RH WIND       PRES   REMARKS
FORT POLK      MOSUNNY   75  54  47 CALM      30.20R
ALEXANDRIA INT SUNNY     74  55  51 SE3       30.19S
ALEXANDRIA     SUNNY     77  52  41 VRB5      30.20S

$$

LAZ001-002-201700-
NORTHWEST LOUISIANA

CITY           SKY/WX    TMP DP  RH WIND       PRES   REMARKS
SHREVEPORT     PTSUNNY   75  57  53 SE6       30.19R
BARKSDALE AFB  MOSUNNY   75  55  49 S6        30.19S
DTN SHREVEPORT MOSUNNY   74  57  55 SW3       30.19S

$$

LAZ014-016-201700-
NORTHEAST LOUISIANA

CITY           SKY/WX    TMP DP  RH WIND       PRES   REMARKS
MONROE         SUNNY     77  54  44 NE3       30.21S
TALLULAH       SUNNY     74  56  53 SE7       30.21S

$$




USA.gov is the U.S. government's official web portal to all federal, state and local government web resources and services.